Year,Month,Day,Hour,Minute,Value (Times are PST for temperature in C)
2007,05,29,00,00,11.60
2007,05,29,00,01,11.60
2007,05,29,00,02,11.60
2007,05,29,00,03,11.60
2007,05,29,00,04,11.60
2007,05,29,00,05,11.60
2007,05,29,00,06,11.70
2007,05,29,00,07,11.70
2007,05,29,00,08,11.80
2007,05,29,00,09,11.80
2007,05,29,00,10,11.80
2007,05,29,00,11,11.80
2007,05,29,00,12,11.80
2007,05,29,00,13,11.80
2007,05,29,00,14,11.80
2007,05,29,00,15,11.80
2007,05,29,00,16,11.80
2007,05,29,00,17,11.80
2007,05,29,00,18,11.80
2007,05,29,00,19,11.80
2007,05,29,00,20,11.80
2007,05,29,00,21,11.80
2007,05,29,00,22,11.80
2007,05,29,00,23,11.80
2007,05,29,00,24,11.80
2007,05,29,00,25,11.80
2007,05,29,00,26,11.80
2007,05,29,00,27,11.80
2007,05,29,00,28,11.80
2007,05,29,00,29,11.70
2007,05,29,00,30,11.60
2007,05,29,00,31,11.60
2007,05,29,00,32,11.60
2007,05,29,00,33,11.50
2007,05,29,00,34,11.40
2007,05,29,00,35,11.40
2007,05,29,00,36,11.40
2007,05,29,00,37,11.30
2007,05,29,00,38,11.30
2007,05,29,00,39,11.30
2007,05,29,00,40,11.20
2007,05,29,00,41,11.20
2007,05,29,00,42,11.10
2007,05,29,00,43,11.10
2007,05,29,00,44,11.10
2007,05,29,00,45,11.10
2007,05,29,00,46,11.10
2007,05,29,00,47,11.00
2007,05,29,00,48,10.90
2007,05,29,00,49,10.90
2007,05,29,00,50,10.90
2007,05,29,00,51,10.90
2007,05,29,00,52,10.90
2007,05,29,00,53,10.90
2007,05,29,00,54,10.90
2007,05,29,00,55,10.90
2007,05,29,00,56,10.90
2007,05,29,00,57,10.90
2007,05,29,00,58,10.90
2007,05,29,00,59,10.90
2007,05,29,01,00,10.90
2007,05,29,01,01,10.90
2007,05,29,01,02,10.90
2007,05,29,01,03,10.90
2007,05,29,01,04,10.80
2007,05,29,01,05,10.80
2007,05,29,01,06,10.80
2007,05,29,01,07,10.80
2007,05,29,01,08,10.70
2007,05,29,01,09,10.70
2007,05,29,01,10,10.70
2007,05,29,01,11,10.80
2007,05,29,01,12,10.80
2007,05,29,01,13,10.80
2007,05,29,01,14,10.80
2007,05,29,01,15,10.80
2007,05,29,01,16,10.80
2007,05,29,01,17,10.70
2007,05,29,01,18,10.70
2007,05,29,01,19,10.70
2007,05,29,01,20,10.70
2007,05,29,01,21,10.60
2007,05,29,01,22,10.60
2007,05,29,01,23,10.50
2007,05,29,01,24,10.40
2007,05,29,01,25,10.40
2007,05,29,01,26,10.30
2007,05,29,01,27,10.20
2007,05,29,01,28,10.20
2007,05,29,01,29,10.20
2007,05,29,01,30,10.20
2007,05,29,01,31,10.20
2007,05,29,01,32,10.20
2007,05,29,01,33,10.10
2007,05,29,01,34,10.00
2007,05,29,01,35,9.90
2007,05,29,01,36,9.90
2007,05,29,01,37,9.90
2007,05,29,01,38,9.90
2007,05,29,01,39,9.90
2007,05,29,01,40,9.90
2007,05,29,01,41,9.80
2007,05,29,01,42,9.80
2007,05,29,01,43,9.90
2007,05,29,01,44,9.90
2007,05,29,01,45,9.90
2007,05,29,01,46,10.00
2007,05,29,01,47,10.10
2007,05,29,01,48,10.10
2007,05,29,01,49,10.10
2007,05,29,01,50,10.20
2007,05,29,01,51,10.20
2007,05,29,01,52,10.20
2007,05,29,01,53,10.30
2007,05,29,01,54,10.40
2007,05,29,01,55,10.40
2007,05,29,01,56,10.40
2007,05,29,01,57,10.60
2007,05,29,01,58,10.60
2007,05,29,01,59,10.60
2007,05,29,02,00,10.60
2007,05,29,02,01,10.60
2007,05,29,02,02,10.50
2007,05,29,02,03,10.40
2007,05,29,02,04,10.40
2007,05,29,02,05,10.40
2007,05,29,02,06,10.40
2007,05,29,02,07,10.40
2007,05,29,02,08,10.30
2007,05,29,02,09,10.20
2007,05,29,02,10,10.20
2007,05,29,02,11,10.10
2007,05,29,02,12,10.10
2007,05,29,02,13,10.10
2007,05,29,02,14,10.00
2007,05,29,02,15,9.90
2007,05,29,02,16,9.90
2007,05,29,02,17,9.90
2007,05,29,02,18,9.90
2007,05,29,02,19,9.90
2007,05,29,02,20,9.90
2007,05,29,02,21,10.10
2007,05,29,02,22,10.10
2007,05,29,02,23,10.10
2007,05,29,02,24,10.10
2007,05,29,02,25,10.20
2007,05,29,02,26,10.20
2007,05,29,02,27,10.30
2007,05,29,02,28,10.30
2007,05,29,02,29,10.40
2007,05,29,02,30,10.40
2007,05,29,02,31,10.40
2007,05,29,02,32,10.50
2007,05,29,02,33,10.60
2007,05,29,02,34,10.60
2007,05,29,02,35,10.60
2007,05,29,02,36,10.60
2007,05,29,02,37,10.60
2007,05,29,02,38,10.70
2007,05,29,02,39,10.70
2007,05,29,02,40,10.70
2007,05,29,02,41,10.70
2007,05,29,02,42,10.70
2007,05,29,02,43,10.70
2007,05,29,02,44,10.70
2007,05,29,02,45,10.70
2007,05,29,02,46,10.70
2007,05,29,02,47,10.60
2007,05,29,02,48,10.60
2007,05,29,02,49,10.60
2007,05,29,02,50,10.60
2007,05,29,02,51,10.60
2007,05,29,02,52,10.60
2007,05,29,02,53,10.40
2007,05,29,02,54,10.40
2007,05,29,02,55,10.40
2007,05,29,02,56,10.30
2007,05,29,02,57,10.20
2007,05,29,02,58,10.10
2007,05,29,02,59,10.00
2007,05,29,03,00,9.90
2007,05,29,03,01,9.80
2007,05,29,03,02,9.70
2007,05,29,03,03,9.70
2007,05,29,03,04,9.60
2007,05,29,03,05,9.60
2007,05,29,03,06,9.70
2007,05,29,03,07,9.70
2007,05,29,03,08,9.70
2007,05,29,03,09,9.70
2007,05,29,03,10,9.70
2007,05,29,03,11,9.70
2007,05,29,03,12,9.70
2007,05,29,03,13,9.70
2007,05,29,03,14,9.70
2007,05,29,03,15,9.70
2007,05,29,03,16,9.70
2007,05,29,03,17,9.70
2007,05,29,03,18,9.70
2007,05,29,03,19,9.80
2007,05,29,03,20,9.80
2007,05,29,03,21,9.90
2007,05,29,03,22,9.90
2007,05,29,03,23,9.90
2007,05,29,03,24,9.90
2007,05,29,03,25,9.90
2007,05,29,03,26,9.90
2007,05,29,03,27,9.90
2007,05,29,03,28,9.80
2007,05,29,03,29,9.80
2007,05,29,03,30,9.80
2007,05,29,03,31,9.70
2007,05,29,03,32,9.70
2007,05,29,03,33,9.80
2007,05,29,03,34,9.80
2007,05,29,03,35,9.80
2007,05,29,03,36,9.80
2007,05,29,03,37,9.80
2007,05,29,03,38,9.80
2007,05,29,03,39,9.80
2007,05,29,03,40,9.80
2007,05,29,03,41,9.90
2007,05,29,03,42,9.90
2007,05,29,03,43,9.90
2007,05,29,03,44,9.90
2007,05,29,03,45,9.90
2007,05,29,03,46,9.80
2007,05,29,03,47,9.80
2007,05,29,03,48,9.80
2007,05,29,03,49,9.80
2007,05,29,03,50,9.80
2007,05,29,03,51,9.80
2007,05,29,03,52,9.80
2007,05,29,03,53,9.80
2007,05,29,03,54,9.80
2007,05,29,03,55,9.80
2007,05,29,03,56,9.80
2007,05,29,03,57,9.80
2007,05,29,03,58,9.80
2007,05,29,03,59,9.80
2007,05,29,04,00,9.80
2007,05,29,04,01,9.80
2007,05,29,04,02,9.80
2007,05,29,04,03,9.80
2007,05,29,04,04,9.70
2007,05,29,04,05,9.70
2007,05,29,04,06,9.70
2007,05,29,04,07,9.70
2007,05,29,04,08,9.80
2007,05,29,04,09,9.80
2007,05,29,04,10,9.80
2007,05,29,04,11,9.80
2007,05,29,04,12,9.80
2007,05,29,04,13,9.90
2007,05,29,04,14,9.90
2007,05,29,04,15,9.90
2007,05,29,04,16,9.90
2007,05,29,04,17,9.90
2007,05,29,04,18,9.90
2007,05,29,04,19,9.90
2007,05,29,04,20,9.90
2007,05,29,04,21,9.90
2007,05,29,04,22,9.90
2007,05,29,04,23,9.90
2007,05,29,04,24,9.90
2007,05,29,04,25,9.90
2007,05,29,04,26,9.90
2007,05,29,04,27,9.90
2007,05,29,04,28,9.90
2007,05,29,04,29,9.90
2007,05,29,04,30,9.80
2007,05,29,04,31,9.70
2007,05,29,04,32,9.70
2007,05,29,04,33,9.70
2007,05,29,04,34,9.60
2007,05,29,04,35,9.50
2007,05,29,04,36,9.40
2007,05,29,04,37,9.40
2007,05,29,04,38,9.30
2007,05,29,04,39,9.30
2007,05,29,04,40,9.20
2007,05,29,04,41,9.20
2007,05,29,04,42,9.20
2007,05,29,04,43,9.20
2007,05,29,04,44,9.20
2007,05,29,04,45,9.20
2007,05,29,04,46,9.20
2007,05,29,04,47,9.20
2007,05,29,04,48,9.20
2007,05,29,04,49,9.20
2007,05,29,04,50,9.10
2007,05,29,04,51,9.10
2007,05,29,04,52,9.10
2007,05,29,04,53,9.10
2007,05,29,04,54,9.00
2007,05,29,04,55,9.00
2007,05,29,04,56,9.00
2007,05,29,04,57,9.00
2007,05,29,04,58,8.90
2007,05,29,04,59,8.90
2007,05,29,05,00,8.90
2007,05,29,05,01,8.90
2007,05,29,05,02,9.00
2007,05,29,05,03,9.00
2007,05,29,05,04,9.00
2007,05,29,05,05,8.90
2007,05,29,05,06,8.90
2007,05,29,05,07,8.90
2007,05,29,05,08,8.90
2007,05,29,05,09,8.90
2007,05,29,05,10,8.80
2007,05,29,05,11,8.80
2007,05,29,05,12,8.90
2007,05,29,05,13,8.90
2007,05,29,05,14,8.90
2007,05,29,05,15,8.90
2007,05,29,05,16,8.90
2007,05,29,05,17,8.90
2007,05,29,05,18,8.90
2007,05,29,05,19,8.90
2007,05,29,05,20,8.90
2007,05,29,05,21,8.90
2007,05,29,05,22,8.90
2007,05,29,05,23,8.90
2007,05,29,05,24,8.90
2007,05,29,05,25,8.90
2007,05,29,05,26,8.90
2007,05,29,05,27,9.00
2007,05,29,05,28,8.90
2007,05,29,05,29,8.90
2007,05,29,05,30,8.90
2007,05,29,05,31,8.90
2007,05,29,05,32,8.90
2007,05,29,05,33,8.90
2007,05,29,05,34,8.90
2007,05,29,05,35,8.90
2007,05,29,05,36,8.90
2007,05,29,05,37,8.90
2007,05,29,05,38,8.90
2007,05,29,05,39,8.90
2007,05,29,05,40,8.90
2007,05,29,05,41,9.00
2007,05,29,05,42,9.00
2007,05,29,05,43,9.10
2007,05,29,05,44,9.10
2007,05,29,05,45,9.10
2007,05,29,05,46,9.20
2007,05,29,05,47,9.20
2007,05,29,05,48,9.20
2007,05,29,05,49,9.30
2007,05,29,05,50,9.30
2007,05,29,05,51,9.40
2007,05,29,05,52,9.40
2007,05,29,05,53,9.50
2007,05,29,05,54,9.50
2007,05,29,05,55,9.60
2007,05,29,05,56,9.70
2007,05,29,05,57,9.70
2007,05,29,05,58,9.70
2007,05,29,05,59,9.80
2007,05,29,06,00,9.80
2007,05,29,06,01,9.90
2007,05,29,06,02,9.90
2007,05,29,06,03,10.00
2007,05,29,06,04,10.10
2007,05,29,06,05,10.10
2007,05,29,06,06,10.10
2007,05,29,06,07,10.20
2007,05,29,06,08,10.20
2007,05,29,06,09,10.20
2007,05,29,06,10,10.30
2007,05,29,06,11,10.30
2007,05,29,06,12,10.30
2007,05,29,06,13,10.30
2007,05,29,06,14,10.30
2007,05,29,06,15,10.30
2007,05,29,06,16,10.40
2007,05,29,06,17,10.40
2007,05,29,06,18,10.40
2007,05,29,06,19,10.40
2007,05,29,06,20,10.50
2007,05,29,06,21,10.60
2007,05,29,06,22,10.60
2007,05,29,06,23,10.60
2007,05,29,06,24,10.70
2007,05,29,06,25,10.70
2007,05,29,06,26,10.70
2007,05,29,06,27,10.70
2007,05,29,06,28,10.60
2007,05,29,06,29,10.60
2007,05,29,06,30,10.60
2007,05,29,06,31,10.60
2007,05,29,06,32,10.60
2007,05,29,06,33,10.60
2007,05,29,06,34,10.60
2007,05,29,06,35,10.60
2007,05,29,06,36,10.60
2007,05,29,06,37,10.60
2007,05,29,06,38,10.60
2007,05,29,06,39,10.70
2007,05,29,06,40,10.80
2007,05,29,06,41,10.80
2007,05,29,06,42,10.90
2007,05,29,06,43,10.90
2007,05,29,06,44,10.90
2007,05,29,06,45,11.10
2007,05,29,06,46,11.10
2007,05,29,06,47,11.20
2007,05,29,06,48,11.30
2007,05,29,06,49,11.30
2007,05,29,06,50,11.30
2007,05,29,06,51,11.40
2007,05,29,06,52,11.40
2007,05,29,06,53,11.30
2007,05,29,06,54,11.30
2007,05,29,06,55,11.30
2007,05,29,06,56,11.30
2007,05,29,06,57,11.30
2007,05,29,06,58,11.30
2007,05,29,06,59,11.30
2007,05,29,07,00,11.40
2007,05,29,07,01,11.40
2007,05,29,07,02,11.40
2007,05,29,07,03,11.50
2007,05,29,07,04,11.60
2007,05,29,07,05,11.60
2007,05,29,07,06,11.60
2007,05,29,07,07,11.60
2007,05,29,07,08,11.60
2007,05,29,07,09,11.60
2007,05,29,07,10,11.60
2007,05,29,07,11,11.60
2007,05,29,07,12,11.60
2007,05,29,07,13,11.60
2007,05,29,07,14,11.60
2007,05,29,07,15,11.60
2007,05,29,07,16,11.60
2007,05,29,07,17,11.60
2007,05,29,07,18,11.60
2007,05,29,07,19,11.60
2007,05,29,07,20,11.60
2007,05,29,07,21,11.60
2007,05,29,07,22,11.60
2007,05,29,07,23,11.70
2007,05,29,07,24,11.70
2007,05,29,07,25,11.80
2007,05,29,07,26,11.80
2007,05,29,07,27,11.80
2007,05,29,07,28,11.80
2007,05,29,07,29,11.80
2007,05,29,07,30,11.90
2007,05,29,07,31,11.90
2007,05,29,07,32,12.00
2007,05,29,07,33,12.00
2007,05,29,07,34,12.00
2007,05,29,07,35,12.00
2007,05,29,07,36,12.00
2007,05,29,07,37,12.00
2007,05,29,07,38,12.00
2007,05,29,07,39,12.10
2007,05,29,07,40,12.10
2007,05,29,07,41,12.10
2007,05,29,07,42,12.20
2007,05,29,07,43,12.20
2007,05,29,07,44,12.20
2007,05,29,07,45,12.30
2007,05,29,07,46,12.30
2007,05,29,07,47,12.30
2007,05,29,07,48,12.30
2007,05,29,07,49,12.30
2007,05,29,07,50,12.30
2007,05,29,07,51,12.30
2007,05,29,07,52,12.30
2007,05,29,07,53,12.30
2007,05,29,07,54,12.30
2007,05,29,07,55,12.30
2007,05,29,07,56,12.30
2007,05,29,07,57,12.30
2007,05,29,07,58,12.30
2007,05,29,07,59,12.30
2007,05,29,08,00,12.30
2007,05,29,08,01,12.40
2007,05,29,08,02,12.40
2007,05,29,08,03,12.40
2007,05,29,08,04,12.50
2007,05,29,08,05,12.50
2007,05,29,08,06,12.60
2007,05,29,08,07,12.60
2007,05,29,08,08,12.60
2007,05,29,08,09,12.60
2007,05,29,08,10,12.80
2007,05,29,08,11,12.80
2007,05,29,08,12,12.80
2007,05,29,08,13,12.80
2007,05,29,08,14,12.80
2007,05,29,08,15,12.80
2007,05,29,08,16,12.80
2007,05,29,08,17,12.80
2007,05,29,08,18,12.80
2007,05,29,08,19,12.80
2007,05,29,08,20,12.80
2007,05,29,08,21,12.80
2007,05,29,08,22,12.80
2007,05,29,08,23,12.90
2007,05,29,08,24,12.90
2007,05,29,08,25,13.00
2007,05,29,08,26,13.00
2007,05,29,08,27,13.00
2007,05,29,08,28,13.00
2007,05,29,08,29,13.00
2007,05,29,08,30,13.00
2007,05,29,08,31,13.00
2007,05,29,08,32,13.10
2007,05,29,08,33,13.20
2007,05,29,08,34,13.20
2007,05,29,08,35,13.20
2007,05,29,08,36,13.20
2007,05,29,08,37,13.20
2007,05,29,08,38,13.20
2007,05,29,08,39,13.20
2007,05,29,08,40,13.20
2007,05,29,08,41,13.30
2007,05,29,08,42,13.40
2007,05,29,08,43,13.40
2007,05,29,08,44,13.50
2007,05,29,08,45,13.60
2007,05,29,08,46,13.60
2007,05,29,08,47,13.60
2007,05,29,08,48,13.60
2007,05,29,08,49,13.60
2007,05,29,08,50,13.60
2007,05,29,08,51,13.50
2007,05,29,08,52,13.50
2007,05,29,08,53,13.50
2007,05,29,08,54,13.50
2007,05,29,08,55,13.50
2007,05,29,08,56,13.50
2007,05,29,08,57,13.50
2007,05,29,08,58,13.50
2007,05,29,08,59,13.50
2007,05,29,09,00,13.60
2007,05,29,09,01,13.60
2007,05,29,09,02,13.60
2007,05,29,09,03,13.70
2007,05,29,09,04,13.70
2007,05,29,09,05,13.70
2007,05,29,09,06,13.80
2007,05,29,09,07,13.80
2007,05,29,09,08,13.80
2007,05,29,09,09,13.70
2007,05,29,09,10,13.70
2007,05,29,09,11,13.70
2007,05,29,09,12,13.70
2007,05,29,09,13,13.70
2007,05,29,09,14,13.80
2007,05,29,09,15,13.90
2007,05,29,09,16,14.00
2007,05,29,09,17,13.90
2007,05,29,09,18,13.90
2007,05,29,09,19,13.90
2007,05,29,09,20,14.00
2007,05,29,09,21,14.00
2007,05,29,09,22,14.00
2007,05,29,09,23,14.10
2007,05,29,09,24,14.20
2007,05,29,09,25,14.20
2007,05,29,09,26,14.10
2007,05,29,09,27,14.10
2007,05,29,09,28,14.20
2007,05,29,09,29,14.20
2007,05,29,09,30,14.10
2007,05,29,09,31,14.00
2007,05,29,09,32,13.90
2007,05,29,09,33,13.90
2007,05,29,09,34,13.80
2007,05,29,09,35,13.80
2007,05,29,09,36,13.80
2007,05,29,09,37,13.70
2007,05,29,09,38,13.80
2007,05,29,09,39,13.80
2007,05,29,09,40,13.90
2007,05,29,09,41,13.90
2007,05,29,09,42,14.00
2007,05,29,09,43,14.10
2007,05,29,09,44,14.10
2007,05,29,09,45,14.20
2007,05,29,09,46,14.30
2007,05,29,09,47,14.30
2007,05,29,09,48,14.30
2007,05,29,09,49,14.30
2007,05,29,09,50,14.30
2007,05,29,09,51,14.20
2007,05,29,09,52,14.20
2007,05,29,09,53,14.20
2007,05,29,09,54,14.20
2007,05,29,09,55,14.20
2007,05,29,09,56,14.30
2007,05,29,09,57,14.30
2007,05,29,09,58,14.30
2007,05,29,09,59,14.30
2007,05,29,10,00,14.20
2007,05,29,10,01,14.20
2007,05,29,10,02,14.10
2007,05,29,10,03,14.10
2007,05,29,10,04,14.10
2007,05,29,10,05,14.20
2007,05,29,10,06,14.30
2007,05,29,10,07,14.40
2007,05,29,10,08,14.50
2007,05,29,10,09,14.60
2007,05,29,10,10,14.60
2007,05,29,10,11,14.70
2007,05,29,10,12,14.70
2007,05,29,10,13,14.70
2007,05,29,10,14,14.70
2007,05,29,10,15,14.60
2007,05,29,10,16,14.60
2007,05,29,10,17,14.60
2007,05,29,10,18,14.60
2007,05,29,11,08,15.30
2007,05,29,11,09,15.40
2007,05,29,11,10,15.30
2007,05,29,11,11,15.30
2007,05,29,11,12,15.30
2007,05,29,12,02,17.30
2007,05,29,12,03,17.20
2007,05,29,12,04,17.20
2007,05,29,12,05,17.20
2007,05,29,12,06,17.20
2007,05,29,12,07,17.20
2007,05,29,12,08,17.30
2007,05,29,12,09,17.30
2007,05,29,12,10,17.20
2007,05,29,12,11,17.20
2007,05,29,12,12,17.20
2007,05,29,12,13,17.10
2007,05,29,12,14,17.20
2007,05,29,12,15,17.30
2007,05,29,12,16,17.30
2007,05,29,12,17,17.40
2007,05,29,12,18,17.40
2007,05,29,12,19,17.50
2007,05,29,12,20,17.70
2007,05,29,12,21,17.80
2007,05,29,12,22,18.00
2007,05,29,12,23,18.10
2007,05,29,12,24,18.20
2007,05,29,12,25,18.10
2007,05,29,12,26,18.00
2007,05,29,12,27,17.90
2007,05,29,12,28,17.80
2007,05,29,12,29,17.70
2007,05,29,12,30,17.80
2007,05,29,12,31,17.90
2007,05,29,12,32,18.00
2007,05,29,12,33,18.00
2007,05,29,12,34,17.90
2007,05,29,12,35,17.90
2007,05,29,12,36,17.90
2007,05,29,12,37,17.90
2007,05,29,12,38,17.90
2007,05,29,12,39,17.90
2007,05,29,12,40,17.90
2007,05,29,12,41,17.80
2007,05,29,12,42,17.80
2007,05,29,12,43,17.80
2007,05,29,12,44,17.80
2007,05,29,12,45,17.70
2007,05,29,12,46,17.70
2007,05,29,12,47,17.90
2007,05,29,12,48,18.00
2007,05,29,12,49,18.10
2007,05,29,12,50,18.10
2007,05,29,12,51,18.20
2007,05,29,12,52,18.20
2007,05,29,12,53,18.20
2007,05,29,12,54,18.20
2007,05,29,12,55,18.10
2007,05,29,12,56,18.00
2007,05,29,12,57,18.00
2007,05,29,12,58,18.10
2007,05,29,12,59,18.10
2007,05,29,13,00,18.10
2007,05,29,13,01,18.10
2007,05,29,13,02,18.10
2007,05,29,13,03,18.10
2007,05,29,13,04,18.20
2007,05,29,13,05,18.30
2007,05,29,13,06,18.30
2007,05,29,13,07,18.20
2007,05,29,13,08,18.20
2007,05,29,13,09,18.20
2007,05,29,13,10,18.20
2007,05,29,13,11,18.30
2007,05,29,13,12,18.40
2007,05,29,13,13,18.50
2007,05,29,13,14,18.60
2007,05,29,13,15,18.80
2007,05,29,13,16,18.90
2007,05,29,13,17,19.00
2007,05,29,13,18,19.00
2007,05,29,13,19,18.90
2007,05,29,13,20,18.90
2007,05,29,13,21,19.00
2007,05,29,13,22,19.00
2007,05,29,13,23,18.90
2007,05,29,13,24,18.90
2007,05,29,13,25,18.90
2007,05,29,13,26,18.90
2007,05,29,13,27,19.00
2007,05,29,13,28,18.90
2007,05,29,13,29,18.80
2007,05,29,13,30,18.80
2007,05,29,13,31,18.70
2007,05,29,13,32,18.60
2007,05,29,13,33,18.60
2007,05,29,13,34,18.70
2007,05,29,13,35,18.80
2007,05,29,13,36,18.80
2007,05,29,13,37,18.90
2007,05,29,13,38,18.90
2007,05,29,13,39,18.80
2007,05,29,13,40,18.80
2007,05,29,13,41,18.70
2007,05,29,13,42,18.70
2007,05,29,13,43,18.60
2007,05,29,13,44,18.70
2007,05,29,13,45,18.70
2007,05,29,13,46,18.70
2007,05,29,13,47,18.90
2007,05,29,13,48,18.90
2007,05,29,13,49,18.90
2007,05,29,13,50,18.90
2007,05,29,13,51,19.10
2007,05,29,13,52,19.20
2007,05,29,13,53,19.30
2007,05,29,13,54,19.40
2007,05,29,13,55,19.40
2007,05,29,13,56,19.40
2007,05,29,13,57,19.30
2007,05,29,13,58,19.30
2007,05,29,13,59,19.30
2007,05,29,14,00,19.40
2007,05,29,14,01,19.40
2007,05,29,14,02,19.40
2007,05,29,14,03,19.60
2007,05,29,14,04,19.60
2007,05,29,14,05,19.50
2007,05,29,14,06,19.40
2007,05,29,14,07,19.40
2007,05,29,14,08,19.40
2007,05,29,14,09,19.40
2007,05,29,14,10,19.50
2007,05,29,14,11,19.50
2007,05,29,14,12,19.50
2007,05,29,14,13,19.60
2007,05,29,14,14,19.50
2007,05,29,14,15,19.50
2007,05,29,14,16,19.50
2007,05,29,14,17,19.60
2007,05,29,14,18,19.60
2007,05,29,14,19,19.70
2007,05,29,14,20,19.60
2007,05,29,14,21,19.50
2007,05,29,14,22,19.50
2007,05,29,14,23,19.50
2007,05,29,14,24,19.40
2007,05,29,14,25,19.30
2007,05,29,14,26,19.40
2007,05,29,14,27,19.40
2007,05,29,14,28,19.50
2007,05,29,14,29,19.60
2007,05,29,14,30,19.60
2007,05,29,14,31,19.60
2007,05,29,14,32,19.60
2007,05,29,14,33,19.60
2007,05,29,14,34,19.50
2007,05,29,14,35,19.40
2007,05,29,14,36,19.40
2007,05,29,14,37,19.50
2007,05,29,14,38,19.50
2007,05,29,14,39,19.60
2007,05,29,14,40,19.60
2007,05,29,14,41,19.70
2007,05,29,14,42,19.70
2007,05,29,14,43,19.70
2007,05,29,14,44,19.80
2007,05,29,14,45,19.80
2007,05,29,14,46,19.80
2007,05,29,14,47,19.80
2007,05,29,14,48,19.80
2007,05,29,14,49,19.90
2007,05,29,14,50,19.90
2007,05,29,14,51,19.90
2007,05,29,14,52,20.00
2007,05,29,14,53,20.10
2007,05,29,14,54,20.10
2007,05,29,14,55,20.20
2007,05,29,14,56,20.20
2007,05,29,14,57,20.20
2007,05,29,14,58,20.30
2007,05,29,14,59,20.30
2007,05,29,15,00,20.30
2007,05,29,15,01,20.20
2007,05,29,15,02,20.20
2007,05,29,15,03,20.30
2007,05,29,15,04,20.20
2007,05,29,15,05,20.20
2007,05,29,15,06,20.20
2007,05,29,15,07,20.30
2007,05,29,15,08,20.30
2007,05,29,15,09,20.40
2007,05,29,15,10,20.40
2007,05,29,15,11,20.50
2007,05,29,15,12,20.50
2007,05,29,15,13,20.60
2007,05,29,15,14,20.60
2007,05,29,15,15,20.70
2007,05,29,15,16,20.70
2007,05,29,15,17,20.80
2007,05,29,15,18,20.80
2007,05,29,15,19,20.80
2007,05,29,15,20,20.80
2007,05,29,15,21,20.80
2007,05,29,15,22,20.80
2007,05,29,15,23,20.80
2007,05,29,15,24,20.80
2007,05,29,15,25,20.90
2007,05,29,15,26,20.90
2007,05,29,15,27,20.90
2007,05,29,15,28,20.90
2007,05,29,15,29,20.90
2007,05,29,15,30,20.90
2007,05,29,15,31,20.90
2007,05,29,15,32,21.00
2007,05,29,15,33,21.00
2007,05,29,15,34,21.00
2007,05,29,15,35,21.00
2007,05,29,15,36,21.00
2007,05,29,15,37,21.00
2007,05,29,15,38,21.00
2007,05,29,15,39,21.00
2007,05,29,15,40,21.10
2007,05,29,15,41,21.10
2007,05,29,15,42,21.20
2007,05,29,15,43,21.10
2007,05,29,15,44,21.10
2007,05,29,15,45,21.30
2007,05,29,15,46,21.40
2007,05,29,15,47,21.50
2007,05,29,15,48,21.60
2007,05,29,15,49,21.60
2007,05,29,15,50,21.60
2007,05,29,15,51,21.60
2007,05,29,15,52,21.60
2007,05,29,15,53,21.60
2007,05,29,15,54,21.60
2007,05,29,15,55,21.60
2007,05,29,15,56,21.60
2007,05,29,15,57,21.60
2007,05,29,15,58,21.70
2007,05,29,15,59,21.80
2007,05,29,16,00,21.90
2007,05,29,16,01,21.90
2007,05,29,16,02,21.90
2007,05,29,16,03,21.90
2007,05,29,16,04,22.00
2007,05,29,16,05,22.00
2007,05,29,16,06,22.00
2007,05,29,16,07,22.00
2007,05,29,16,08,21.90
2007,05,29,16,09,21.80
2007,05,29,16,10,21.80
2007,05,29,16,11,21.90
2007,05,29,16,12,21.90
2007,05,29,16,13,22.00
2007,05,29,16,14,22.10
2007,05,29,16,15,22.10
2007,05,29,16,16,22.10
2007,05,29,16,17,22.10
2007,05,29,16,18,22.00
2007,05,29,16,19,22.10
2007,05,29,16,20,22.10
2007,05,29,16,21,22.10
2007,05,29,16,22,22.10
2007,05,29,16,23,22.10
2007,05,29,16,24,22.10
2007,05,29,16,25,22.10
2007,05,29,16,26,22.10
2007,05,29,16,27,22.10
2007,05,29,16,28,22.20
2007,05,29,16,29,22.30
2007,05,29,16,30,22.30
2007,05,29,16,31,22.20
2007,05,29,16,32,22.30
2007,05,29,16,33,22.30
2007,05,29,16,34,22.30
2007,05,29,16,35,22.30
2007,05,29,16,36,22.30
2007,05,29,16,37,22.30
2007,05,29,16,38,22.30
2007,05,29,16,39,22.30
2007,05,29,16,40,22.30
2007,05,29,16,41,22.30
2007,05,29,16,42,22.30
2007,05,29,16,43,22.30
2007,05,29,16,44,22.40
2007,05,29,16,45,22.40
2007,05,29,16,46,22.40
2007,05,29,16,47,22.40
2007,05,29,16,48,22.40
2007,05,29,16,49,22.30
2007,05,29,16,50,22.30
2007,05,29,16,51,22.30
2007,05,29,16,52,22.30
2007,05,29,16,53,22.30
2007,05,29,16,54,22.40
2007,05,29,16,55,22.40
2007,05,29,16,56,22.40
2007,05,29,16,57,22.40
2007,05,29,16,58,22.40
2007,05,29,16,59,22.30
2007,05,29,17,00,22.30
2007,05,29,17,01,22.10
2007,05,29,17,02,21.90
2007,05,29,17,03,21.80
2007,05,29,17,04,21.70
2007,05,29,17,05,21.70
2007,05,29,17,06,21.60
2007,05,29,17,07,21.60
2007,05,29,17,08,21.60
2007,05,29,17,09,21.60
2007,05,29,17,10,21.60
2007,05,29,17,11,21.70
2007,05,29,17,12,21.70
2007,05,29,17,13,21.70
2007,05,29,17,14,21.80
2007,05,29,17,15,21.90
2007,05,29,17,16,21.90
2007,05,29,17,17,22.00
2007,05,29,17,18,21.90
2007,05,29,17,19,22.00
2007,05,29,17,20,22.10
2007,05,29,17,21,22.20
2007,05,29,17,22,22.20
2007,05,29,17,23,22.20
2007,05,29,17,24,22.20
2007,05,29,17,25,22.30
2007,05,29,17,26,22.30
2007,05,29,17,27,22.30
2007,05,29,17,28,22.40
2007,05,29,17,29,22.40
2007,05,29,17,30,22.40
2007,05,29,17,31,22.30
2007,05,29,17,32,22.20
2007,05,29,17,33,22.20
2007,05,29,17,34,22.10
2007,05,29,17,35,22.00
2007,05,29,17,36,22.00
2007,05,29,17,37,21.90
2007,05,29,17,38,22.00
2007,05,29,17,39,22.10
2007,05,29,17,40,22.10
2007,05,29,17,41,22.20
2007,05,29,17,42,22.20
2007,05,29,17,43,22.20
2007,05,29,17,44,22.30
2007,05,29,17,45,22.30
2007,05,29,17,46,22.30
2007,05,29,17,47,22.30
2007,05,29,17,48,22.30
2007,05,29,17,49,22.30
2007,05,29,17,50,22.30
2007,05,29,17,51,22.20
2007,05,29,17,52,22.20
2007,05,29,17,53,22.20
2007,05,29,17,54,22.20
2007,05,29,17,55,22.20
2007,05,29,17,56,22.20
2007,05,29,17,57,22.30
2007,05,29,17,58,22.30
2007,05,29,17,59,22.30
2007,05,29,18,00,22.30
2007,05,29,18,01,22.30
2007,05,29,18,02,22.20
2007,05,29,18,03,22.20
2007,05,29,18,04,22.20
2007,05,29,18,05,22.20
2007,05,29,18,06,22.20
2007,05,29,18,07,22.20
2007,05,29,18,08,22.20
2007,05,29,18,09,22.10
2007,05,29,18,10,22.10
2007,05,29,18,11,22.00
2007,05,29,18,12,22.00
2007,05,29,18,13,22.10
2007,05,29,18,14,22.00
2007,05,29,18,15,22.00
2007,05,29,18,16,22.00
2007,05,29,18,17,22.00
2007,05,29,18,18,22.00
2007,05,29,18,19,22.10
2007,05,29,18,20,22.10
2007,05,29,18,21,22.20
2007,05,29,18,22,22.20
2007,05,29,18,23,22.20
2007,05,29,18,24,22.20
2007,05,29,18,25,22.30
2007,05,29,18,26,22.30
2007,05,29,18,27,22.30
2007,05,29,18,28,22.30
2007,05,29,18,29,22.30
2007,05,29,18,30,22.30
2007,05,29,18,31,22.30
2007,05,29,18,32,22.30
2007,05,29,18,33,22.30
2007,05,29,18,34,22.20
2007,05,29,18,35,22.20
2007,05,29,18,36,22.10
2007,05,29,18,37,22.10
2007,05,29,18,38,22.00
2007,05,29,18,39,22.00
2007,05,29,18,40,21.90
2007,05,29,18,41,21.90
2007,05,29,18,42,22.00
2007,05,29,18,43,22.10
2007,05,29,18,44,22.10
2007,05,29,18,45,22.20
2007,05,29,18,46,22.20
2007,05,29,18,47,22.20
2007,05,29,18,48,22.20
2007,05,29,18,49,22.10
2007,05,29,18,50,22.10
2007,05,29,18,51,22.10
2007,05,29,18,52,22.10
2007,05,29,18,53,22.10
2007,05,29,18,54,22.10
2007,05,29,18,55,22.20
2007,05,29,18,56,22.20
2007,05,29,18,57,22.20
2007,05,29,18,58,22.20
2007,05,29,18,59,22.20
2007,05,29,19,00,22.20
2007,05,29,19,01,22.20
2007,05,29,19,02,22.20
2007,05,29,19,03,22.30
2007,05,29,19,04,22.30
2007,05,29,19,05,22.30
2007,05,29,19,06,22.30